Regional Weather Roundup
Issued by NWS

Home | Current Version | Previous Version | Text Only | Print | Product List | Glossary On
Versions: 1 2 3 4 5 6 7 8 9 10 11 12 13 14 15 16 17 18 19 20 21 22 23 24 25 26 27 28 29 30 31 32 33 34 35 36 37 38 39 40 41 42 43 44 45 46 47 48 49 50
000
ASUS44 KLUB 271310
RWRTX
WEST TEXAS WEATHER ROUNDUP
NATIONAL WEATHER SERVICE LUBBOCK TX
800 AM CDT MON MAR 27 2017

NOTE: "FAIR" INDICATES FEW OR NO CLOUDS BELOW 12,000 FEET WITH NO
SIGNIFICANT WEATHER AND/OR OBSTRUCTIONS TO VISIBILITY.

TXZ004-006>008-010-012-014-016-OKZ002-271400-
TEXAS PANHANDLE/OKLAHOMA PANHANDLE

CITY           SKY/WX    TMP DP  RH WIND       PRES   REMARKS
AMARILLO       CLEAR     36  35  96 NW7       29.99R WCI  30
BORGER         CLEAR     37  35  92 W3        29.99R
CANADIAN       CLOUDY    45  42  88 N12       29.98R
DALHART        CLEAR     34  31  88 W7        30.00R WCI  28
DUMAS          CLEAR     33  32  94 W7        29.99S WCI  27
GUYMON         CLEAR     36  34  92 NW6       29.97R WCI  31
HEREFORD       CLEAR     32  31  95 NW8       30.00S WCI  25
PAMPA          CLEAR     35  34  95 N6        29.99R FOG     WCI  30
PERRYTON       PTCLDY    36  35  95 W6        29.97R WCI  32
$$

TXZ026-029-035-045-048-271400-
SOUTHERN PANHANDLE/SOUTH PLAINS/ROLLING PLAINS

CITY           SKY/WX    TMP DP  RH WIND       PRES   REMARKS
CHILDRESS      CLOUDY    42  38  85 NW9       29.97R
SEMINOLE       CLEAR     39  34  81 N5        30.00S
LUBBOCK        PTCLDY    37  33  85 N8        29.97F WCI  31
PLAINVIEW      CLEAR     37  34  89 N7        29.97R WCI  31
SNYDER         CLEAR     45  38  76 NE6       29.98R
$$

TXZ052-054-060>062-072-078-127-140-154-169-271400-
PERMIAN BASIN/CONCHO VALLEY/BIG COUNTRY/EDWARDS PLATEAU

CITY           SKY/WX    TMP DP  RH WIND       PRES   REMARKS
ABILENE        CLEAR     46  41  82 NW10      29.96R
BIG SPRING     CLEAR     46  37  71 N3        30.01R
BROWNWOOD      CLEAR     50  45  81 N7        29.93R
JUNCTION       CLOUDY    56  54  93 W3        29.90R
MIDLAND        CLEAR     46  35  65 NE9       29.98R
ODESSA           N/A    N/A N/A N/A MISG      29.98R
SAN ANGELO     CLEAR     41  32  70 E3        29.97R
SONORA         PTCLDY    46  34  61 CALM      29.98R
SWEETWATER     CLEAR     44  39  81 N8        29.99R
WINK           CLEAR     44  35  70 N6        29.97R
$$

TXZ055-058-074-075-080-082-271400-
FAR WEST/SOUTHWEST MOUNTAINS/TRANS PECOS

CITY           SKY/WX    TMP DP  RH WIND       PRES   REMARKS
ALPINE         CLEAR     45  23  41 SW6       30.07R
DRYDEN           N/A     61  25  25 NW9       29.90R
EL PASO        PTCLDY    55  18  23 S6        29.97R
FORT STOCKTON  CLEAR     50  23  34 N3        29.98R
GUADALUPE PASS   N/A    N/A N/A N/A MISG        N/A
MARFA          CLOUDY    37  19  48 N6        30.05R WCI  32
PECOS          CLEAR     49  29  46 N3        29.98R
PRESIDIO       FAIR      56  23  27 N7        29.98R
$$

TXZ014-016-019-021>030-083-271400
TEXAS TECH WEST TEXAS MESONET/TEXAS PANHANDLE/NORTHERN SOUTH PLAINS

CITY           SKY/WX    TMP DP  RH WIND       PRES   REMARKS
ABERNATHY 5ENE   N/A     36  34  92 N7        29.99R WCI  30
AMARILLO 9NNE    N/A     34  34 100 W2        30.00R
AMARILLO 7SSE    N/A     36  34  92 NW7       30.00S WCI  30
AMHERST 1NE      N/A     35  32  88 NW9       29.99R WCI  28
BOOTLEG 11WNW    N/A     33  31  93 NW8       30.02R WCI  26
CANADIAN 6E      N/A     44  40  86 NW12      29.96R
CAPROCK CYN SP   N/A     44  39  81 CALM      29.99S
CHILDRESS 2NNE   N/A     43  39  86 NW10      29.97R
CLARENDON 2WSW   N/A     38  36  91 NW8       29.97S WCI  32
CLAUDE 12SW      N/A     36  34  93 NW6       29.99R WCI  31
DIMMITT 2NE      N/A     33  31  94 W9        30.00R WCI  25
FLOYDADA 2NNE    N/A     34  34  99 NW5       29.98R WCI  30
FRIONA 2NE       N/A     32  31  96 NW5       30.01R WCI  28
GOODLETT 3W      N/A     43  39  84 NW12      29.95R
HART 3N          N/A     33  31  94 NW8       29.99S WCI  26
HEREFORD 2NW     N/A     32  30  92 NW6       30.00R WCI  26
MCLEAN 1E        N/A     37  37  99 NW5       29.97R WCI  33
MEMPHIS 1NE      N/A     41  38  88 W2        29.98R
MULESHOE 2SSW    N/A     30  29  96 W5        30.00S WCI  25
OLTON 6S         N/A     36  33  90 NW9       29.99R WCI  29
PALO DURO SP     N/A     38  35  88 NW5       30.00R WCI  34
PAMPA 2E         N/A     36  36  99 NW10      29.98R WCI  28
PLAINVIEW 1S     N/A     38  36  91 NW6       29.98R WCI  34
SILVERTON 7ESE   N/A     34  32  92 NW8       29.98F WCI  27
TULIA 2ENE       N/A     35  34  99 NW12      29.99R WCI  26
TURKEY 2WSW      N/A     42  38  88 NW9       29.97S
UMBARGER 3NNE    N/A     33  31  94 NW7       30.00S WCI  26
$$

TXZ033>036-039>041-045>048-271400
TEXAS TECH WEST TEXAS MESONET/SOUTH PLAINS

CITY           SKY/WX    TMP DP  RH WIND       PRES   REMARKS
AIKEN 3WSW       N/A     34  32  92 NW7       30.00R WCI  28
ANTON 6SSW       N/A     36  32  85 W5        29.99R WCI  32
BROWNFIELD 2S    N/A     41  34  77 NE5       29.99R
DENVR CTY 7WNW   N/A     35  32  88 N6        29.98R WCI  30
GAIL 2ESE        N/A     40  35  84 N5        29.97S
LAMESA 2SE       N/A     41  35  80 N6        30.00R
LEVELLAND 4S     N/A     37  32  84 N5        29.99S WCI  33
LUBBOCK 3WNW     N/A     38  35  86 SW7       30.00R WCI  33
MORTON 1ENE      N/A     34  30  86 NW5       30.00R WCI  30
ODONNELL 1N      N/A     39  32  76 N6        29.99S
PLAINS 3N        N/A     38  34  85 N12       29.98R WCI  30
RALLS 1SE        N/A     39  34  84 N10       29.99S WCI  32
REESE CENTER     N/A     37  33  85 N9        29.99R WCI  31
SEAGRAVES 1SW    N/A     40  34  81 CALM      30.00R
SEMINOLE 2NNE    N/A     38  33  80 NE7       29.99S WCI  33
SLATON 2NE       N/A     40  35  83 N8        30.00R WCI  34
SNYDER 3E        N/A     44  38  80 N12       29.96S
SUNDOWN 8SW      N/A     35  33  91 N8        29.98S WCI  29
TAHOKA 3NNE      N/A     37  33  85 N7        29.99S WCI  32
WOLFFORTH 6SSW   N/A     37  31  78 N8        29.99S WCI  31
$$

TXZ031-032-036>038-042>044-271400-
TEXAS TECH WEST TEXAS MESONET/ROLLING PLAINS

CITY           SKY/WX    TMP DP  RH WIND       PRES   REMARKS
ASPERMONT 3NE    N/A     43  37  80 W1        29.98R
FLUVANNA 3WNW    N/A     41  35  77 N10       29.97S
GRAHAM 5SSW      N/A     40  34  81 NW12      29.98S WCI  32
GUTHRIE 10WSW    N/A     43  37  80 S8        29.98R
HASKELL 1NW      N/A     46  37  72 NW12      29.95S
JAYTON 1SSE      N/A     43  38  82 NW6       29.98R
KNOX CITY 3NW    N/A     45  38  76 S6        29.98R
LK A HENRY 1NW   N/A     42  35  76 NW6       29.98S
NORTHFIELD 1S    N/A     41  38  90 NW6       29.98R
ODELL 4ENE       N/A     45  42  90 NW3       29.96R
PADUCAH 10SW     N/A     42  38  86 NW12      29.96S
POST 1NE         N/A     42  35  78 NW7       29.99R
RRING SPRGS 3N   N/A     43  39  88 NW9       29.97R
SEYMOUR 3NW      N/A     47  41  78 NW9       29.94R
SPUR 1W          N/A     38  35  88 W3        29.97S
WEINERT 2NNE     N/A     45  38  79 W5        29.97R
WHITE RVR 6NE    N/A     41  35  79 NW8       29.98R
$$

TXZ052-054-060>062-072-078-127-140-154-169-271400-
TEXAS TECH WEST TEXAS MESONET/PERMIAN BASIN/
CONCHO VALLEY/BIG COUNTRY/EDWARDS PLATEAU

CITY           SKY/WX    TMP DP  RH WIND       PRES   REMARKS
COYANOSA 2N      N/A     50  32  51 NE7       29.98R
JUNCTION 1SSW    N/A     59  57  92 W2        29.92R
MERTZON 3NNE     N/A     41  33  72 NW6       29.99R
SAN ANGELO 7NW   N/A     43  33  66 NW2       29.98R
STRLNG CT 4WSW   N/A     44  37  77 NW3       29.99R
ST LAWRNCE 5SW   N/A     46  33  59 N7        29.98R
SWEETWATR 11SW   N/A     44  38  78 N7        29.98R
WALL 1E          N/A     46  33  61 NW3       29.98R
$$

TXZ055-058-074-075-080-082-271400-
TEXAS TECH WEST TEXAS MESONET/FAR WEST/SOUTHWEST MOUNTAINS/TRANS PECOS

CITY           SKY/WX    TMP DP  RH WIND       PRES   REMARKS
PRSMN GAP BBNP   N/A     55  19  24 CALM      29.96R
GUADLPE MTN NP   N/A     47  16  28 N6        30.06R
$$




USA.gov is the U.S. government's official web portal to all federal, state and local government web resources and services.